Вернуться в каталог

TIANMU-1 12

АктивенПогодаSSO
NORAD 58646·PAYLOAD·🇨🇳 China

Запущен Dec 25, 2023 с Jiuquan Satellite Launch Center

Loading…

Ближайшие Пролёты (ближайшие 24 часа)

TLE

СвежийSource: Space-Track

Эпоха: Sep 14, 2026, 22:08 UTC

1 58646U 23205B   26257.92267895  .00004935  00000-0  18629-3 0  9991
2 58646  97.3419 277.8212 0008540  43.2936 316.8973 15.27446752151206

Отслеживайте TIANMU-1 12 в реальном времени с AllMySat

Download on the App Store